START_TIME,STEP,MOV.,P1,t_acc.,E44,t_acc.,A3,t_acc.,P10,t_acc.
1979-02-28 15:00:12.670 ,0,0,14.,1.2,3.,1.2,0.,1.2,0.,1.2
1979-02-28 15:00:13.870 ,0,0,6.,1.2,11.,1.2,1.,1.2,0.,1.2
1979-02-28 15:00:15.070 ,0,0,10.,1.2,4.,1.2,0.,1.2,0.,1.2
1979-02-28 15:00:16.270 ,0,0,9.,1.2,4.,1.2,0.,1.2,0.,1.2
1979-02-28 15:00:17.470 ,0,0,6.,1.2,5.,1.2,1.,1.2,0.,1.2
1979-02-28 15:00:18.670 ,0,0,8.,1.2,16.,1.2,0.,1.2,0.,1.2
1979-02-28 15:00:19.870 ,0,0,8.,1.2,7.,1.2,1.,1.2,0.,1.2
1979-02-28 15:00:21.070 ,0,0,8.,1.2,11.,1.2,0.,1.2,0.,1.2
1979-02-28 15:00:22.270 ,0,0,6.,1.2,5.,1.2,0.,1.2,0.,1.2
1979-02-28 15:00:23.470 ,0,0,12.,1.2,8.,1.2,0.,1.2,0.,1.2
1979-02-28 15:00:24.670 ,0,0,5.,1.2,10.,1.2,1.,1.2,0.,1.2
1979-02-28 15:00:25.870 ,0,0,5.,1.2,12.,1.2,1.,1.2,0.,1.2
1979-02-28 15:00:27.070 ,0,0,9.,1.2,11.,1.2,0.,1.2,0.,1.2
1979-02-28 15:00:28.270 ,0,0,6.,1.2,8.,1.2,0.,1.2,0.,1.2
1979-02-28 15:00:29.470 ,0,0,8.,1.2,8.,1.2,0.,1.2,0.,1.2
1979-02-28 15:00:30.670 ,0,0,4.,1.2,5.,1.2,0.,1.2,0.,1.2
1979-02-28 15:00:31.870 ,0,0,16.,1.2,8.,1.2,1.,1.2,0.,1.2
1979-02-28 15:00:33.070 ,0,0,6.,1.2,14.,1.2,0.,1.2,0.,1.2
1979-02-28 15:00:34.270 ,0,0,7.,1.2,11.,1.2,2.,1.2,0.,1.2
1979-02-28 15:00:35.470 ,0,0,12.,1.2,8.,1.2,0.,1.2,0.,1.2
1979-02-28 15:00:36.670 ,1,0,5.,1.2,6.,1.2,2.,1.2,0.,1.2
1979-02-28 15:00:37.870 ,1,0,5.,1.2,8.,1.2,0.,1.2,0.,1.2
1979-02-28 15:00:39.070 ,1,0,5.,1.2,10.,1.2,0.,1.2,0.,1.2
1979-02-28 15:00:40.270 ,1,0,3.,1.2,7.,1.2,0.,1.2,0.,1.2
1979-02-28 15:00:41.470 ,1,0,5.,1.2,11.,1.2,0.,1.2,0.,1.2
1979-02-28 15:00:42.670 ,1,0,8.,1.2,12.,1.2,0.,1.2,0.,1.2
1979-02-28 15:00:43.870 ,1,0,4.,1.2,9.,1.2,1.,1.2,0.,1.2
1979-02-28 15:00:45.070 ,1,0,6.,1.2,7.,1.2,1.,1.2,0.,1.2
1979-02-28 15:00:46.270 ,1,0,6.,1.2,9.,1.2,0.,1.2,0.,1.2
1979-02-28 15:00:47.470 ,1,0,7.,1.2,8.,1.2,1.,1.2,0.,1.2
1979-02-28 15:00:48.670 ,1,0,7.,1.2,12.,1.2,0.,1.2,0.,1.2
1979-02-28 15:00:49.870 ,1,0,6.,1.2,13.,1.2,0.,1.2,0.,1.2
1979-02-28 15:00:51.070 ,1,0,8.,1.2,12.,1.2,0.,1.2,0.,1.2
1979-02-28 15:00:52.270 ,1,0,6.,1.2,10.,1.2,1.,1.2,0.,1.2
1979-02-28 15:00:53.470 ,1,0,5.,1.2,12.,1.2,1.,1.2,0.,1.2
1979-02-28 15:00:54.670 ,1,0,6.,1.2,9.,1.2,1.,1.2,0.,1.2
1979-02-28 15:00:55.870 ,1,0,6.,1.2,8.,1.2,0.,1.2,0.,1.2
1979-02-28 15:00:57.070 ,1,0,8.,1.2,7.,1.2,0.,1.2,0.,1.2
1979-02-28 15:00:58.270 ,1,0,7.,1.2,10.,1.2,0.,1.2,0.,1.2
1979-02-28 15:00:59.470 ,1,0,8.,1.2,15.,1.2,1.,1.2,0.,1.2
1979-02-28 15:01:00.670 ,0,0,8.,1.2,9.,1.2,1.,1.2,0.,1.2
1979-02-28 15:01:01.870 ,0,0,5.,1.2,11.,1.2,2.,1.2,0.,1.2
1979-02-28 15:01:03.070 ,0,0,9.,1.2,6.,1.2,0.,1.2,0.,1.2
1979-02-28 15:01:04.270 ,0,0,5.,1.2,4.,1.2,0.,1.2,0.,1.2
1979-02-28 15:01:05.470 ,0,0,7.,1.2,11.,1.2,0.,1.2,0.,1.2
1979-02-28 15:01:06.670 ,0,0,10.,1.2,27.,1.2,2.,1.2,0.,1.2
1979-02-28 15:01:07.870 ,0,0,16.,1.2,7.,1.2,0.,1.2,0.,1.2
1979-02-28 15:01:09.070 ,0,0,12.,1.2,7.,1.2,1.,1.2,0.,1.2
1979-02-28 15:01:10.270 ,0,0,4.,1.2,9.,1.2,0.,1.2,0.,1.2
1979-02-28 15:01:11.470 ,0,0,10.,1.2,9.,1.2,2.,1.2,0.,1.2
1979-02-28 15:01:12.670 ,0,0,8.,1.2,6.,1.2,0.,1.2,0.,1.2
1979-02-28 15:01:13.870 ,0,0,7.,1.2,11.,1.2,0.,1.2,0.,1.2
1979-02-28 15:01:15.070 ,0,0,16.,1.2,13.,1.2,0.,1.2,0.,1.2
1979-02-28 15:01:16.270 ,0,0,5.,1.2,5.,1.2,0.,1.2,0.,1.2
1979-02-28 15:01:17.470 ,0,0,15.,1.2,5.,1.2,0.,1.2,0.,1.2
1979-02-28 15:01:18.670 ,0,0,8.,1.2,6.,1.2,1.,1.2,0.,1.2
1979-02-28 15:01:19.870 ,0,0,12.,1.2,5.,1.2,3.,1.2,0.,1.2
1979-02-28 15:01:21.070 ,0,0,7.,1.2,9.,1.2,0.,1.2,0.,1.2
1979-02-28 15:01:22.270 ,0,0,7.,1.2,8.,1.2,2.,1.2,0.,1.2
1979-02-28 15:01:23.470 ,0,0,10.,1.2,9.,1.2,0.,1.2,0.,1.2
1979-02-28 15:01:24.670 ,0,0,5.,1.2,10.,1.2,3.,1.2,0.,1.2
1979-02-28 15:01:25.870 ,0,0,7.,1.2,9.,1.2,2.,1.2,0.,1.2
1979-02-28 15:01:27.070 ,0,0,4.,1.2,9.,1.2,0.,1.2,0.,1.2
1979-02-28 15:01:28.270 ,0,0,7.,1.2,8.,1.2,0.,1.2,1.,1.2
1979-02-28 15:01:29.470 ,0,0,8.,1.2,15.,1.2,1.,1.2,0.,1.2
1979-02-28 15:01:30.670 ,0,0,13.,1.2,8.,1.2,0.,1.2,0.,1.2
1979-02-28 15:01:31.870 ,0,0,11.,1.2,10.,1.2,0.,1.2,0.,1.2
1979-02-28 15:01:33.070 ,0,0,12.,1.2,8.,1.2,1.,1.2,0.,1.2
1979-02-28 15:01:34.270 ,0,0,13.,1.2,9.,1.2,1.,1.2,0.,1.2
1979-02-28 15:01:35.470 ,0,0,6.,1.2,9.,1.2,0.,1.2,0.,1.2
1979-02-28 15:01:36.670 ,0,0,13.,1.2,11.,1.2,1.,1.2,0.,1.2
1979-02-28 15:01:37.870 ,0,0,9.,1.2,7.,1.2,1.,1.2,0.,1.2
1979-02-28 15:01:39.070 ,0,0,10.,1.2,8.,1.2,0.,1.2,0.,1.2
1979-02-28 15:01:40.270 ,0,0,11.,1.2,5.,1.2,1.,1.2,0.,1.2
1979-02-28 15:01:41.470 ,0,0,9.,1.2,6.,1.2,0.,1.2,0.,1.2
1979-02-28 15:01:42.670 ,0,0,6.,1.2,14.,1.2,0.,1.2,0.,1.2
1979-02-28 15:01:43.870 ,0,0,7.,1.2,12.,1.2,2.,1.2,0.,1.2
1979-02-28 15:01:45.070 ,0,0,13.,1.2,12.,1.2,0.,1.2,0.,1.2
1979-02-28 15:01:46.270 ,0,0,10.,1.2,13.,1.2,0.,1.2,0.,1.2
1979-02-28 15:01:47.470 ,0,0,3.,1.2,7.,1.2,3.,1.2,0.,1.2
1979-02-28 15:01:48.670 ,1,0,10.,1.2,12.,1.2,2.,1.2,0.,1.2
1979-02-28 15:01:49.870 ,1,0,11.,1.2,9.,1.2,1.,1.2,0.,1.2
1979-02-28 15:01:51.070 ,1,0,12.,1.2,7.,1.2,0.,1.2,0.,1.2
1979-02-28 15:01:52.270 ,1,0,10.,1.2,10.,1.2,0.,1.2,0.,1.2
1979-02-28 15:01:53.470 ,1,0,12.,1.2,2.,1.2,1.,1.2,0.,1.2
1979-02-28 15:01:54.670 ,1,0,10.,1.2,15.,1.2,1.,1.2,0.,1.2
1979-02-28 15:01:55.870 ,1,0,10.,1.2,6.,1.2,0.,1.2,0.,1.2
1979-02-28 15:01:57.070 ,1,0,6.,1.2,10.,1.2,0.,1.2,0.,1.2
1979-02-28 15:01:58.270 ,1,0,11.,1.2,9.,1.2,0.,1.2,0.,1.2
1979-02-28 15:01:59.470 ,1,0,6.,1.2,6.,1.2,2.,1.2,0.,1.2
1979-02-28 15:02:00.670 ,1,0,7.,1.2,11.,1.2,1.,1.2,0.,1.2
1979-02-28 15:02:01.870 ,1,0,5.,1.2,7.,1.2,0.,1.2,0.,1.2
1979-02-28 15:02:03.070 ,1,0,6.,1.2,9.,1.2,0.,1.2,0.,1.2
1979-02-28 15:02:04.270 ,1,0,7.,1.2,5.,1.2,2.,1.2,0.,1.2
1979-02-28 15:02:05.470 ,1,0,6.,1.2,9.,1.2,0.,1.2,0.,1.2
1979-02-28 15:02:06.670 ,1,0,12.,1.2,13.,1.2,0.,1.2,0.,1.2
1979-02-28 15:02:07.870 ,1,0,5.,1.2,4.,1.2,1.,1.2,0.,1.2
1979-02-28 15:02:09.070 ,1,0,7.,1.2,11.,1.2,0.,1.2,0.,1.2
1979-02-28 15:02:10.270 ,1,0,10.,1.2,13.,1.2,0.,1.2,0.,1.2
1979-02-28 15:02:11.470 ,1,0,12.,1.2,13.,1.2,2.,1.2,0.,1.2
1979-02-28 15:02:12.670 ,2,0,9.,1.2,8.,1.2,0.,1.2,0.,1.2
1979-02-28 15:02:13.870 ,2,0,8.,1.2,9.,1.2,0.,1.2,0.,1.2
1979-02-28 15:02:15.070 ,2,0,9.,1.2,9.,1.2,0.,1.2,0.,1.2
1979-02-28 15:02:16.270 ,2,0,4.,1.2,11.,1.2,1.,1.2,1.,1.2
1979-02-28 15:02:17.470 ,2,0,8.,1.2,11.,1.2,1.,1.2,1.,1.2
1979-02-28 15:02:18.670 ,2,0,10.,1.2,9.,1.2,0.,1.2,0.,1.2
1979-02-28 15:02:19.870 ,2,0,9.,1.2,12.,1.2,0.,1.2,0.,1.2
1979-02-28 15:02:21.070 ,2,0,8.,1.2,7.,1.2,1.,1.2,0.,1.2
1979-02-28 15:02:22.270 ,2,0,7.,1.2,11.,1.2,0.,1.2,0.,1.2
1979-02-28 15:02:23.470 ,2,0,7.,1.2,12.,1.2,0.,1.2,0.,1.2
1979-02-28 15:02:24.670 ,2,0,11.,1.2,8.,1.2,1.,1.2,0.,1.2
1979-02-28 15:02:25.870 ,2,0,9.,1.2,6.,1.2,1.,1.2,0.,1.2
1979-02-28 15:02:27.070 ,2,0,5.,1.2,7.,1.2,0.,1.2,0.,1.2
1979-02-28 15:02:28.270 ,2,0,7.,1.2,12.,1.2,4.,1.2,0.,1.2
1979-02-28 15:02:29.470 ,2,0,16.,1.2,7.,1.2,0.,1.2,0.,1.2
1979-02-28 15:02:30.670 ,2,0,8.,1.2,10.,1.2,1.,1.2,0.,1.2
1979-02-28 15:02:31.870 ,2,0,6.,1.2,4.,1.2,1.,1.2,0.,1.2
1979-02-28 15:02:33.070 ,2,0,6.,1.2,7.,1.2,0.,1.2,0.,1.2
1979-02-28 15:02:34.270 ,2,0,10.,1.2,11.,1.2,1.,1.2,0.,1.2
1979-02-28 15:02:35.470 ,2,0,6.,1.2,10.,1.2,1.,1.2,0.,1.2
1979-02-28 15:02:36.670 ,3,0,11.,1.2,9.,1.2,0.,1.2,0.,1.2
1979-02-28 15:02:37.870 ,3,0,7.,1.2,8.,1.2,0.,1.2,0.,1.2
1979-02-28 15:02:39.070 ,3,0,10.,1.2,5.,1.2,0.,1.2,0.,1.2
1979-02-28 15:02:40.270 ,3,0,6.,1.2,7.,1.2,2.,1.2,0.,1.2
1979-02-28 15:02:41.470 ,3,0,8.,1.2,17.,1.2,1.,1.2,0.,1.2
1979-02-28 15:02:42.670 ,3,0,11.,1.2,17.,1.2,1.,1.2,0.,1.2
1979-02-28 15:02:43.870 ,3,0,9.,1.2,6.,1.2,1.,1.2,0.,1.2
1979-02-28 15:02:45.070 ,3,0,6.,1.2,7.,1.2,0.,1.2,0.,1.2
1979-02-28 15:02:46.270 ,3,0,8.,1.2,5.,1.2,1.,1.2,0.,1.2
1979-02-28 15:02:47.470 ,3,0,17.,1.2,11.,1.2,1.,1.2,0.,1.2
1979-02-28 15:02:48.670 ,3,0,11.,1.2,2.,1.2,1.,1.2,0.,1.2
1979-02-28 15:02:49.870 ,3,0,6.,1.2,8.,1.2,1.,1.2,0.,1.2
1979-02-28 15:02:51.070 ,3,0,10.,1.2,9.,1.2,0.,1.2,1.,1.2
1979-02-28 15:02:52.270 ,3,0,8.,1.2,5.,1.2,1.,1.2,0.,1.2
1979-02-28 15:02:53.470 ,3,0,11.,1.2,2.,1.2,0.,1.2,0.,1.2
1979-02-28 15:02:54.670 ,3,0,6.,1.2,7.,1.2,1.,1.2,0.,1.2
1979-02-28 15:02:55.870 ,3,0,7.,1.2,12.,1.2,0.,1.2,0.,1.2
1979-02-28 15:02:57.070 ,3,0,10.,1.2,5.,1.2,0.,1.2,0.,1.2
1979-02-28 15:02:58.270 ,3,0,9.,1.2,8.,1.2,0.,1.2,0.,1.2
1979-02-28 15:02:59.470 ,3,0,8.,1.2,6.,1.2,1.,1.2,0.,1.2
1979-02-28 15:03:00.670 ,4,0,12.,1.2,6.,1.2,0.,1.2,0.,1.2
1979-02-28 15:03:01.870 ,4,0,5.,1.2,7.,1.2,2.,1.2,0.,1.2
1979-02-28 15:03:03.070 ,4,0,7.,1.2,9.,1.2,0.,1.2,0.,1.2
1979-02-28 15:03:04.270 ,4,0,5.,1.2,4.,1.2,1.,1.2,1.,1.2
1979-02-28 15:03:05.470 ,4,0,9.,1.2,6.,1.2,0.,1.2,0.,1.2
1979-02-28 15:03:06.670 ,4,0,8.,1.2,8.,1.2,0.,1.2,0.,1.2
1979-02-28 15:03:07.870 ,4,0,8.,1.2,7.,1.2,0.,1.2,0.,1.2
1979-02-28 15:03:09.070 ,4,0,6.,1.2,11.,1.2,0.,1.2,0.,1.2
1979-02-28 15:03:10.270 ,4,0,6.,1.2,6.,1.2,0.,1.2,0.,1.2
1979-02-28 15:03:11.470 ,4,0,7.,1.2,11.,1.2,0.,1.2,0.,1.2
1979-02-28 15:03:12.670 ,4,0,5.,1.2,10.,1.2,1.,1.2,1.,1.2
1979-02-28 15:03:13.870 ,4,0,10.,1.2,8.,1.2,3.,1.2,0.,1.2
1979-02-28 15:03:15.070 ,4,0,5.,1.2,9.,1.2,1.,1.2,0.,1.2
1979-02-28 15:03:16.270 ,4,0,4.,1.2,10.,1.2,0.,1.2,0.,1.2
1979-02-28 15:03:17.470 ,4,0,7.,1.2,7.,1.2,0.,1.2,0.,1.2
1979-02-28 15:03:18.670 ,4,0,10.,1.2,9.,1.2,1.,1.2,0.,1.2
1979-02-28 15:03:19.870 ,4,0,9.,1.2,11.,1.2,0.,1.2,0.,1.2
1979-02-28 15:03:21.070 ,4,0,6.,1.2,8.,1.2,0.,1.2,0.,1.2
1979-02-28 15:03:22.270 ,4,0,11.,1.2,9.,1.2,0.,1.2,0.,1.2
1979-02-28 15:03:23.470 ,4,0,8.,1.2,11.,1.2,0.,1.2,0.,1.2
1979-02-28 15:03:24.670 ,5,0,6.,1.2,8.,1.2,0.,1.2,0.,1.2
1979-02-28 15:03:25.870 ,5,0,9.,1.2,7.,1.2,0.,1.2,0.,1.2
1979-02-28 15:03:27.070 ,5,0,4.,1.2,7.,1.2,0.,1.2,1.,1.2
1979-02-28 15:03:28.270 ,5,0,4.,1.2,11.,1.2,0.,1.2,0.,1.2
1979-02-28 15:03:29.470 ,5,0,12.,1.2,8.,1.2,1.,1.2,0.,1.2
1979-02-28 15:03:30.670 ,5,0,4.,1.2,16.,1.2,0.,1.2,0.,1.2
1979-02-28 15:03:31.870 ,5,0,4.,1.2,9.,1.2,0.,1.2,0.,1.2
1979-02-28 15:03:33.070 ,5,0,11.,1.2,11.,1.2,0.,1.2,0.,1.2
1979-02-28 15:03:34.270 ,5,0,3.,1.2,8.,1.2,0.,1.2,0.,1.2
1979-02-28 15:03:35.470 ,5,0,5.,1.2,6.,1.2,0.,1.2,0.,1.2
1979-02-28 15:03:36.670 ,5,0,5.,1.2,6.,1.2,0.,1.2,0.,1.2
1979-02-28 15:03:37.870 ,5,0,5.,1.2,9.,1.2,0.,1.2,0.,1.2
1979-02-28 15:03:39.070 ,5,0,6.,1.2,9.,1.2,0.,1.2,0.,1.2
1979-02-28 15:03:40.270 ,5,0,5.,1.2,9.,1.2,0.,1.2,0.,1.2
1979-02-28 15:03:41.470 ,5,0,6.,1.2,9.,1.2,0.,1.2,0.,1.2
1979-02-28 15:03:42.670 ,5,0,3.,1.2,8.,1.2,0.,1.2,0.,1.2
1979-02-28 15:03:43.870 ,5,0,9.,1.2,14.,1.2,0.,1.2,0.,1.2
1979-02-28 15:03:45.070 ,5,0,6.,1.2,10.,1.2,0.,1.2,0.,1.2
1979-02-28 15:03:46.270 ,5,0,13.,1.2,8.,1.2,0.,1.2,0.,1.2
1979-02-28 15:03:47.470 ,5,0,7.,1.2,8.,1.2,1.,1.2,0.,1.2
1979-02-28 15:03:48.670 ,6,0,6.,1.2,11.,1.2,0.,1.2,0.,1.2
1979-02-28 15:03:49.870 ,6,0,4.,1.2,8.,1.2,1.,1.2,0.,1.2
1979-02-28 15:03:51.070 ,6,0,9.,1.2,8.,1.2,0.,1.2,0.,1.2
1979-02-28 15:03:52.270 ,6,0,3.,1.2,10.,1.2,0.,1.2,0.,1.2
1979-02-28 15:03:53.470 ,6,0,6.,1.2,6.,1.2,0.,1.2,1.,1.2
1979-02-28 15:03:54.670 ,6,0,13.,1.2,18.,1.2,0.,1.2,0.,1.2
1979-02-28 15:03:55.870 ,6,0,9.,1.2,9.,1.2,0.,1.2,0.,1.2
1979-02-28 15:03:57.070 ,6,0,5.,1.2,11.,1.2,1.,1.2,0.,1.2
1979-02-28 15:03:58.270 ,6,0,3.,1.2,7.,1.2,0.,1.2,0.,1.2
1979-02-28 15:03:59.470 ,6,0,5.,1.2,11.,1.2,0.,1.2,0.,1.2
1979-02-28 15:04:00.670 ,6,0,7.,1.2,8.,1.2,0.,1.2,0.,1.2
1979-02-28 15:04:01.870 ,6,0,10.,1.2,6.,1.2,0.,1.2,0.,1.2
1979-02-28 15:04:03.070 ,6,0,6.,1.2,7.,1.2,0.,1.2,0.,1.2
1979-02-28 15:04:04.270 ,6,0,8.,1.2,10.,1.2,0.,1.2,0.,1.2
1979-02-28 15:04:05.470 ,6,0,7.,1.2,11.,1.2,0.,1.2,0.,1.2
1979-02-28 15:04:06.670 ,6,0,8.,1.2,8.,1.2,1.,1.2,0.,1.2
1979-02-28 15:04:07.870 ,6,0,9.,1.2,7.,1.2,0.,1.2,0.,1.2
1979-02-28 15:04:09.070 ,6,0,5.,1.2,11.,1.2,0.,1.2,0.,1.2
1979-02-28 15:04:10.270 ,6,0,13.,1.2,10.,1.2,1.,1.2,0.,1.2
1979-02-28 15:04:11.470 ,6,0,7.,1.2,9.,1.2,0.,1.2,0.,1.2
1979-02-28 15:04:12.670 ,7,0,5.,1.2,8.,1.2,0.,1.2,0.,1.2
1979-02-28 15:04:13.870 ,7,0,10.,1.2,8.,1.2,0.,1.2,0.,1.2
1979-02-28 15:04:15.070 ,7,0,4.,1.2,16.,1.2,0.,1.2,0.,1.2
1979-02-28 15:04:16.270 ,7,0,4.,1.2,9.,1.2,0.,1.2,0.,1.2
1979-02-28 15:04:17.470 ,7,0,6.,1.2,6.,1.2,0.,1.2,0.,1.2
1979-02-28 15:04:18.670 ,7,0,2.,1.2,26.,1.2,1.,1.2,0.,1.2
1979-02-28 15:04:19.870 ,7,0,0.,1.2,5.,1.2,1.,1.2,0.,1.2
1979-02-28 15:04:21.070 ,7,0,0.,1.2,11.,1.2,6.,1.2,0.,1.2
1979-02-28 15:04:22.270 ,7,0,0.,1.2,6.,1.2,4.,1.2,0.,1.2
1979-02-28 15:04:23.470 ,7,0,0.,1.2,7.,1.2,4.,1.2,0.,1.2
1979-02-28 15:04:24.670 ,7,0,0.,1.2,10.,1.2,5.,1.2,0.,1.2
1979-02-28 15:04:25.870 ,7,0,0.,1.2,12.,1.2,3.,1.2,0.,1.2
1979-02-28 15:04:27.070 ,7,0,0.,1.2,8.,1.2,3.,1.2,0.,1.2
1979-02-28 15:04:28.270 ,7,0,0.,1.2,8.,1.2,7.,1.2,0.,1.2
1979-02-28 15:04:29.470 ,7,0,0.,1.2,9.,1.2,3.,1.2,0.,1.2
1979-02-28 15:04:30.670 ,7,0,0.,1.2,11.,1.2,2.,1.2,0.,1.2
1979-02-28 15:04:31.870 ,7,0,0.,1.2,12.,1.2,1.,1.2,0.,1.2
1979-02-28 15:04:33.070 ,7,0,0.,1.2,4.,1.2,1.,1.2,0.,1.2
1979-02-28 15:04:34.270 ,7,0,0.,1.2,5.,1.2,5.,1.2,0.,1.2
1979-02-28 15:04:35.470 ,7,0,0.,1.2,9.,1.2,2.,1.2,0.,1.2
1979-02-28 15:04:36.670 ,7,0,0.,1.2,12.,1.2,4.,1.2,0.,1.2
1979-02-28 15:04:37.870 ,7,0,0.,1.2,6.,1.2,5.,1.2,0.,1.2
1979-02-28 15:04:39.070 ,7,0,0.,1.2,11.,1.2,3.,1.2,0.,1.2
1979-02-28 15:04:40.270 ,7,0,0.,1.2,9.,1.2,1.,1.2,0.,1.2
1979-02-28 15:04:41.470 ,7,0,0.,1.2,10.,1.2,6.,1.2,0.,1.2
1979-02-28 15:04:42.670 ,7,0,0.,1.2,15.,1.2,3.,1.2,0.,1.2
1979-02-28 15:04:43.870 ,7,0,0.,1.2,13.,1.2,4.,1.2,0.,1.2
1979-02-28 15:04:45.070 ,7,0,0.,1.2,17.,1.2,2.,1.2,0.,1.2
1979-02-28 15:04:46.270 ,7,0,0.,1.2,10.,1.2,4.,1.2,0.,1.2
1979-02-28 15:04:47.470 ,7,0,0.,1.2,7.,1.2,2.,1.2,0.,1.2
1979-02-28 15:04:48.670 ,7,0,0.,1.2,12.,1.2,3.,1.2,0.,1.2
1979-02-28 15:04:49.870 ,7,0,,0,,0,,0,,0
1979-02-28 15:04:51.070 ,7,0,0.,1.2,7.,1.2,2.,1.2,0.,1.2
1979-02-28 15:04:52.270 ,7,0,0.,1.2,11.,1.2,3.,1.2,0.,1.2
1979-02-28 15:04:53.470 ,7,0,0.,1.2,6.,1.2,4.,1.2,0.,1.2
1979-02-28 15:04:54.670 ,7,0,0.,1.2,15.,1.2,2.,1.2,0.,1.2
1979-02-28 15:04:55.870 ,7,0,0.,1.2,10.,1.2,1.,1.2,0.,1.2
1979-02-28 15:04:57.070 ,7,0,0.,1.2,7.,1.2,6.,1.2,0.,1.2
1979-02-28 15:04:58.270 ,7,0,0.,1.2,6.,1.2,2.,1.2,0.,1.2
1979-02-28 15:04:59.470 ,7,0,0.,1.2,11.,1.2,1.,1.2,0.,1.2
1979-02-28 15:05:00.670 ,6,0,0.,1.2,10.,1.2,4.,1.2,0.,1.2
1979-02-28 15:05:01.870 ,6,0,0.,1.2,7.,1.2,5.,1.2,0.,1.2
1979-02-28 15:05:03.070 ,6,0,0.,1.2,7.,1.2,6.,1.2,0.,1.2
1979-02-28 15:05:04.270 ,6,0,0.,1.2,11.,1.2,3.,1.2,0.,1.2
1979-02-28 15:05:05.470 ,6,0,0.,1.2,9.,1.2,4.,1.2,0.,1.2
1979-02-28 15:05:06.670 ,6,0,3.,1.2,38.,1.2,3.,1.2,0.,1.2
1979-02-28 15:05:07.870 ,6,0,2.,1.2,8.,1.2,0.,1.2,0.,1.2
1979-02-28 15:05:09.070 ,6,0,12.,1.2,11.,1.2,0.,1.2,0.,1.2
1979-02-28 15:05:10.270 ,6,0,9.,1.2,7.,1.2,0.,1.2,0.,1.2
1979-02-28 15:05:11.470 ,6,0,9.,1.2,8.,1.2,1.,1.2,0.,1.2
1979-02-28 15:05:12.670 ,6,0,9.,1.2,8.,1.2,0.,1.2,0.,1.2
1979-02-28 15:05:13.870 ,6,0,7.,1.2,16.,1.2,0.,1.2,0.,1.2
1979-02-28 15:05:15.070 ,6,0,11.,1.2,9.,1.2,0.,1.2,0.,1.2
1979-02-28 15:05:16.270 ,6,0,7.,1.2,8.,1.2,0.,1.2,0.,1.2
1979-02-28 15:05:17.470 ,6,0,10.,1.2,7.,1.2,0.,1.2,0.,1.2
1979-02-28 15:05:18.670 ,6,0,5.,1.2,3.,1.2,0.,1.2,0.,1.2
1979-02-28 15:05:19.870 ,6,0,7.,1.2,9.,1.2,0.,1.2,0.,1.2
1979-02-28 15:05:21.070 ,6,0,9.,1.2,11.,1.2,0.,1.2,1.,1.2
1979-02-28 15:05:22.270 ,6,0,5.,1.2,4.,1.2,0.,1.2,0.,1.2
1979-02-28 15:05:23.470 ,6,0,10.,1.2,8.,1.2,0.,1.2,0.,1.2
1979-02-28 15:05:24.670 ,5,0,3.,1.2,7.,1.2,0.,1.2,0.,1.2
1979-02-28 15:05:25.870 ,5,0,7.,1.2,13.,1.2,1.,1.2,0.,1.2
1979-02-28 15:05:27.070 ,5,0,5.,1.2,10.,1.2,1.,1.2,0.,1.2
1979-02-28 15:05:28.270 ,5,0,5.,1.2,6.,1.2,0.,1.2,0.,1.2
1979-02-28 15:05:29.470 ,5,0,9.,1.2,12.,1.2,0.,1.2,0.,1.2
1979-02-28 15:05:30.670 ,5,0,11.,1.2,23.,1.2,0.,1.2,0.,1.2
1979-02-28 15:05:31.870 ,5,0,6.,1.2,7.,1.2,0.,1.2,0.,1.2
1979-02-28 15:05:33.070 ,5,0,7.,1.2,11.,1.2,0.,1.2,0.,1.2
1979-02-28 15:05:34.270 ,5,0,9.,1.2,7.,1.2,0.,1.2,0.,1.2
1979-02-28 15:05:35.470 ,5,0,8.,1.2,8.,1.2,0.,1.2,0.,1.2
1979-02-28 15:05:36.670 ,5,0,7.,1.2,12.,1.2,0.,1.2,0.,1.2
1979-02-28 15:05:37.870 ,5,0,5.,1.2,13.,1.2,1.,1.2,1.,1.2
1979-02-28 15:05:39.070 ,5,0,6.,1.2,13.,1.2,2.,1.2,0.,1.2
1979-02-28 15:05:40.270 ,5,0,4.,1.2,9.,1.2,0.,1.2,0.,1.2
1979-02-28 15:05:41.470 ,5,0,4.,1.2,6.,1.2,0.,1.2,0.,1.2
1979-02-28 15:05:42.670 ,5,0,10.,1.2,9.,1.2,0.,1.2,0.,1.2
1979-02-28 15:05:43.870 ,5,0,8.,1.2,5.,1.2,0.,1.2,0.,1.2
1979-02-28 15:05:45.070 ,5,0,4.,1.2,11.,1.2,0.,1.2,0.,1.2
1979-02-28 15:05:46.270 ,5,0,5.,1.2,8.,1.2,0.,1.2,0.,1.2
1979-02-28 15:05:47.470 ,5,0,7.,1.2,7.,1.2,1.,1.2,0.,1.2
1979-02-28 15:05:48.670 ,4,0,4.,1.2,14.,1.2,1.,1.2,0.,1.2
1979-02-28 15:05:49.870 ,4,0,10.,1.2,9.,1.2,0.,1.2,0.,1.2
1979-02-28 15:05:51.070 ,4,0,10.,1.2,4.,1.2,0.,1.2,0.,1.2
1979-02-28 15:05:52.270 ,4,0,3.,1.2,11.,1.2,0.,1.2,0.,1.2
1979-02-28 15:05:53.470 ,4,0,2.,1.2,6.,1.2,0.,1.2,0.,1.2
1979-02-28 15:05:54.670 ,4,0,9.,1.2,17.,1.2,0.,1.2,0.,1.2
1979-02-28 15:05:55.870 ,4,0,10.,1.2,8.,1.2,0.,1.2,0.,1.2
1979-02-28 15:05:57.070 ,4,0,7.,1.2,3.,1.2,1.,1.2,0.,1.2
1979-02-28 15:05:58.270 ,4,0,6.,1.2,6.,1.2,0.,1.2,0.,1.2
1979-02-28 15:05:59.470 ,4,0,2.,1.2,7.,1.2,0.,1.2,0.,1.2
1979-02-28 15:06:00.670 ,4,0,10.,1.2,6.,1.2,1.,1.2,0.,1.2
1979-02-28 15:06:01.870 ,4,0,7.,1.2,5.,1.2,0.,1.2,0.,1.2
1979-02-28 15:06:03.070 ,4,0,6.,1.2,5.,1.2,0.,1.2,0.,1.2
1979-02-28 15:06:04.270 ,4,0,5.,1.2,5.,1.2,1.,1.2,0.,1.2
1979-02-28 15:06:05.470 ,4,0,7.,1.2,13.,1.2,0.,1.2,0.,1.2
1979-02-28 15:06:06.670 ,4,0,8.,1.2,6.,1.2,1.,1.2,0.,1.2
1979-02-28 15:06:07.870 ,4,0,6.,1.2,9.,1.2,0.,1.2,0.,1.2
1979-02-28 15:06:09.070 ,4,0,8.,1.2,8.,1.2,0.,1.2,0.,1.2
1979-02-28 15:06:10.270 ,4,0,4.,1.2,8.,1.2,0.,1.2,0.,1.2
1979-02-28 15:06:11.470 ,4,0,9.,1.2,10.,1.2,0.,1.2,0.,1.2
1979-02-28 15:06:12.670 ,3,0,7.,1.2,4.,1.2,0.,1.2,0.,1.2
1979-02-28 15:06:13.870 ,3,0,4.,1.2,3.,1.2,0.,1.2,0.,1.2
1979-02-28 15:06:15.070 ,3,0,8.,1.2,13.,1.2,0.,1.2,0.,1.2
1979-02-28 15:06:16.270 ,3,0,8.,1.2,10.,1.2,0.,1.2,0.,1.2
1979-02-28 15:06:17.470 ,3,0,9.,1.2,12.,1.2,1.,1.2,0.,1.2
1979-02-28 15:06:18.670 ,3,0,8.,1.2,20.,1.2,0.,1.2,0.,1.2
1979-02-28 15:06:19.870 ,3,0,10.,1.2,4.,1.2,0.,1.2,0.,1.2
1979-02-28 15:06:21.070 ,3,0,11.,1.2,7.,1.2,1.,1.2,0.,1.2
1979-02-28 15:06:22.270 ,3,0,6.,1.2,2.,1.2,1.,1.2,0.,1.2
1979-02-28 15:06:23.470 ,3,0,10.,1.2,7.,1.2,0.,1.2,0.,1.2
1979-02-28 15:06:24.670 ,3,0,6.,1.2,5.,1.2,0.,1.2,0.,1.2
1979-02-28 15:06:25.870 ,3,0,8.,1.2,4.,1.2,0.,1.2,0.,1.2
1979-02-28 15:06:27.070 ,3,0,7.,1.2,8.,1.2,0.,1.2,0.,1.2
1979-02-28 15:06:28.270 ,3,0,9.,1.2,4.,1.2,2.,1.2,0.,1.2
1979-02-28 15:06:29.470 ,3,0,11.,1.2,5.,1.2,0.,1.2,0.,1.2
1979-02-28 15:06:30.670 ,3,0,8.,1.2,2.,1.2,0.,1.2,0.,1.2
1979-02-28 15:06:31.870 ,3,0,7.,1.2,6.,1.2,0.,1.2,0.,1.2
1979-02-28 15:06:33.070 ,3,0,7.,1.2,4.,1.2,0.,1.2,0.,1.2
1979-02-28 15:06:34.270 ,3,0,,0,,0,,0,,0
1979-02-28 15:06:35.470 ,3,0,5.,1.2,4.,1.2,1.,1.2,0.,1.2
1979-02-28 15:06:36.670 ,2,0,8.,1.2,6.,1.2,0.,1.2,0.,1.2
1979-02-28 15:06:37.870 ,2,0,11.,1.2,7.,1.2,0.,1.2,0.,1.2
1979-02-28 15:06:39.070 ,2,0,11.,1.2,7.,1.2,0.,1.2,0.,1.2
1979-02-28 15:06:40.270 ,2,0,10.,1.2,8.,1.2,0.,1.2,0.,1.2
1979-02-28 15:06:41.470 ,2,0,7.,1.2,7.,1.2,0.,1.2,0.,1.2
1979-02-28 15:06:42.670 ,2,0,7.,1.2,23.,1.2,1.,1.2,0.,1.2
1979-02-28 15:06:43.870 ,2,0,4.,1.2,9.,1.2,0.,1.2,0.,1.2
1979-02-28 15:06:45.070 ,2,0,7.,1.2,8.,1.2,0.,1.2,0.,1.2
1979-02-28 15:06:46.270 ,2,0,2.,1.2,9.,1.2,0.,1.2,1.,1.2
1979-02-28 15:06:47.470 ,2,0,8.,1.2,5.,1.2,0.,1.2,0.,1.2
1979-02-28 15:06:48.670 ,2,0,9.,1.2,9.,1.2,0.,1.2,0.,1.2
1979-02-28 15:06:49.870 ,2,0,3.,1.2,9.,1.2,0.,1.2,0.,1.2
1979-02-28 15:06:51.070 ,2,0,10.,1.2,9.,1.2,2.,1.2,0.,1.2
1979-02-28 15:06:52.270 ,2,0,12.,1.2,6.,1.2,0.,1.2,0.,1.2
1979-02-28 15:06:53.470 ,2,0,10.,1.2,12.,1.2,1.,1.2,0.,1.2
1979-02-28 15:06:54.670 ,2,0,8.,1.2,9.,1.2,0.,1.2,0.,1.2
1979-02-28 15:06:55.870 ,2,0,10.,1.2,7.,1.2,1.,1.2,0.,1.2
1979-02-28 15:06:57.070 ,2,0,8.,1.2,8.,1.2,1.,1.2,0.,1.2
1979-02-28 15:06:58.270 ,2,0,7.,1.2,4.,1.2,1.,1.2,0.,1.2
1979-02-28 15:06:59.470 ,2,0,8.,1.2,7.,1.2,1.,1.2,0.,1.2
1979-02-28 15:07:00.670 ,1,0,8.,1.2,11.,1.2,0.,1.2,0.,1.2
1979-02-28 15:07:01.870 ,1,0,7.,1.2,7.,1.2,0.,1.2,0.,1.2
1979-02-28 15:07:03.070 ,1,0,7.,1.2,6.,1.2,1.,1.2,0.,1.2
1979-02-28 15:07:04.270 ,1,0,12.,1.2,10.,1.2,1.,1.2,0.,1.2
1979-02-28 15:07:05.470 ,1,0,7.,1.2,14.,1.2,1.,1.2,0.,1.2
1979-02-28 15:07:06.670 ,1,0,12.,1.2,20.,1.2,0.,1.2,0.,1.2
1979-02-28 15:07:07.870 ,1,0,4.,1.2,8.,1.2,0.,1.2,0.,1.2
1979-02-28 15:07:09.070 ,1,0,8.,1.2,10.,1.2,1.,1.2,0.,1.2
1979-02-28 15:07:10.270 ,1,0,8.,1.2,7.,1.2,3.,1.2,0.,1.2
1979-02-28 15:07:11.470 ,1,0,13.,1.2,7.,1.2,1.,1.2,0.,1.2
1979-02-28 15:07:12.670 ,1,0,11.,1.2,7.,1.2,1.,1.2,0.,1.2
1979-02-28 15:07:13.870 ,1,0,4.,1.2,6.,1.2,0.,1.2,0.,1.2
1979-02-28 15:07:15.070 ,1,0,7.,1.2,4.,1.2,0.,1.2,0.,1.2
1979-02-28 15:07:16.270 ,1,0,,0,,0,,0,,0
1979-02-28 15:07:17.470 ,1,0,12.,1.2,9.,1.2,0.,1.2,0.,1.2
1979-02-28 15:07:18.670 ,1,0,9.,1.2,11.,1.2,0.,1.2,1.,1.2
1979-02-28 15:07:19.870 ,1,0,12.,1.2,6.,1.2,1.,1.2,0.,1.2
1979-02-28 15:07:21.070 ,1,0,10.,1.2,6.,1.2,1.,1.2,0.,1.2
1979-02-28 15:07:22.270 ,1,0,9.,1.2,10.,1.2,1.,1.2,0.,1.2
1979-02-28 15:07:23.470 ,1,0,10.,1.2,9.,1.2,1.,1.2,0.,1.2
1979-02-28 15:07:24.670 ,0,0,2.,1.2,5.,1.2,2.,1.2,0.,1.2
1979-02-28 15:07:25.870 ,0,0,12.,1.2,4.,1.2,0.,1.2,0.,1.2
1979-02-28 15:07:27.070 ,0,0,5.,1.2,8.,1.2,0.,1.2,0.,1.2
1979-02-28 15:07:28.270 ,0,0,10.,1.2,8.,1.2,0.,1.2,0.,1.2
1979-02-28 15:07:29.470 ,0,0,7.,1.2,8.,1.2,0.,1.2,0.,1.2
1979-02-28 15:07:30.670 ,0,0,9.,1.2,17.,1.2,0.,1.2,0.,1.2
1979-02-28 15:07:31.870 ,0,0,3.,1.2,7.,1.2,0.,1.2,0.,1.2
1979-02-28 15:07:33.070 ,0,0,14.,1.2,9.,1.2,0.,1.2,0.,1.2
1979-02-28 15:07:34.270 ,0,0,11.,1.2,7.,1.2,0.,1.2,0.,1.2
1979-02-28 15:07:35.470 ,0,0,7.,1.2,10.,1.2,1.,1.2,0.,1.2
1979-02-28 15:07:36.670 ,0,0,8.,1.2,14.,1.2,0.,1.2,0.,1.2
1979-02-28 15:07:37.870 ,0,0,6.,1.2,10.,1.2,2.,1.2,0.,1.2
1979-02-28 15:07:39.070 ,0,0,10.,1.2,8.,1.2,1.,1.2,0.,1.2
1979-02-28 15:07:40.270 ,0,0,8.,1.2,6.,1.2,0.,1.2,1.,1.2
1979-02-28 15:07:41.470 ,0,0,4.,1.2,2.,1.2,0.,1.2,0.,1.2
1979-02-28 15:07:42.670 ,0,0,8.,1.2,9.,1.2,0.,1.2,0.,1.2
1979-02-28 15:07:43.870 ,0,0,7.,1.2,4.,1.2,0.,1.2,0.,1.2
1979-02-28 15:07:45.070 ,0,0,5.,1.2,3.,1.2,0.,1.2,0.,1.2
1979-02-28 15:07:46.270 ,0,0,4.,1.2,16.,1.2,0.,1.2,0.,1.2
1979-02-28 15:07:47.470 ,0,0,13.,1.2,11.,1.2,1.,1.2,0.,1.2
1979-02-28 15:07:48.670 ,0,0,10.,1.2,11.,1.2,1.,1.2,0.,1.2
1979-02-28 15:07:49.870 ,0,0,7.,1.2,7.,1.2,1.,1.2,0.,1.2
1979-02-28 15:07:51.070 ,0,0,8.,1.2,7.,1.2,0.,1.2,0.,1.2
1979-02-28 15:07:52.270 ,0,0,7.,1.2,7.,1.2,0.,1.2,0.,1.2
1979-02-28 15:07:53.470 ,0,0,9.,1.2,8.,1.2,0.,1.2,0.,1.2
1979-02-28 15:07:54.670 ,0,0,7.,1.2,8.,1.2,0.,1.2,0.,1.2
1979-02-28 15:07:55.870 ,0,0,6.,1.2,9.,1.2,1.,1.2,0.,1.2
1979-02-28 15:07:57.070 ,0,0,11.,1.2,6.,1.2,0.,1.2,0.,1.2
1979-02-28 15:07:58.270 ,0,0,9.,1.2,9.,1.2,0.,1.2,0.,1.2
1979-02-28 15:07:59.470 ,0,0,10.,1.2,5.,1.2,1.,1.2,0.,1.2
1979-02-28 15:08:00.670 ,0,0,10.,1.2,5.,1.2,0.,1.2,0.,1.2
1979-02-28 15:08:01.870 ,0,0,10.,1.2,10.,1.2,1.,1.2,0.,1.2
1979-02-28 15:08:03.070 ,0,0,7.,1.2,7.,1.2,0.,1.2,0.,1.2
1979-02-28 15:08:04.270 ,0,0,12.,1.2,7.,1.2,0.,1.2,0.,1.2
1979-02-28 15:08:05.470 ,0,0,8.,1.2,8.,1.2,0.,1.2,0.,1.2
1979-02-28 15:08:06.670 ,0,0,4.,1.2,8.,1.2,0.,1.2,0.,1.2
1979-02-28 15:08:07.870 ,0,0,7.,1.2,11.,1.2,0.,1.2,0.,1.2
1979-02-28 15:08:09.070 ,0,0,8.,1.2,9.,1.2,1.,1.2,0.,1.2
1979-02-28 15:08:10.270 ,0,0,9.,1.2,11.,1.2,1.,1.2,0.,1.2
1979-02-28 15:08:11.470 ,0,0,9.,1.2,4.,1.2,1.,1.2,0.,1.2
1979-02-28 15:08:12.670 ,1,0,7.,1.2,8.,1.2,0.,1.2,0.,1.2
1979-02-28 15:08:13.870 ,1,0,4.,1.2,10.,1.2,0.,1.2,0.,1.2
1979-02-28 15:08:15.070 ,1,0,11.,1.2,7.,1.2,0.,1.2,0.,1.2
1979-02-28 15:08:16.270 ,1,0,8.,1.2,8.,1.2,1.,1.2,0.,1.2
1979-02-28 15:08:17.470 ,1,0,17.,1.2,12.,1.2,0.,1.2,0.,1.2
1979-02-28 15:08:18.670 ,1,0,6.,1.2,17.,1.2,0.,1.2,0.,1.2
1979-02-28 15:08:19.870 ,1,0,7.,1.2,7.,1.2,0.,1.2,0.,1.2
1979-02-28 15:08:21.070 ,1,0,9.,1.2,9.,1.2,1.,1.2,0.,1.2
1979-02-28 15:08:22.270 ,1,0,5.,1.2,9.,1.2,1.,1.2,0.,1.2